Retour au catalogue

STARLINK-37135

ActifCommunicationsSSO
NORAD 68602·PAYLOAD·🇺🇸 United States

Lancé Apr 5, 2026 depuis Vandenberg Space Force Base

Loading…

Prochains Passages (prochaines 24 heures)

TLE

FraisSource: CelesTrak SupGP

Époque: Sep 14, 2026, 21:44 UTC

1 68602C 26073A   26257.90604167 -.00023170  00000+0 -71835-3 0  2573
2 68602  97.2850  95.9821 0001533  93.4718 214.3190 15.33489945    15

Suivez STARLINK-37135 en temps réel avec AllMySat

Download on the App Store